[[{"header":{"parameterUnit":"m.s-1","parameterCategory":1,"la1":30.2991,"la2":30.254,"lo1":-89.0895,"lo2":-89.0444,"dy":0.0017,"dx":0.0017,"nx":28,"ny":28,"refTime":"2024-11-25T03:00:00:Z","depth":0,"parameterNumber":2,"parameterNumberName":"U-component_of_WINDS"},"data":[0,0,0,0,0,0,0,0,0,0,0,0,0,0,0,0,0,0,0,0,0,0,0,0,0,0,0,0,0,0,0,0,0,0,0,0,0,0,0,0,0,0,0,0,0,0,0,0,0,0,0,0,0,0,0,0,0,0,0.523,0.5233,0,0.5434,0.5436,0.5439,0.5495,0.5493,0.5492,0.5491,0.5704,0.5711,0.5717,0,0,0,0,0,0,0,0,0,0,0,0,0,0.4893,0.4899,0.523,0.5233,0.5235,0.5434,0.5437,0.5439,0.5495,0.5493,0.5492,0.549,0.5702,0.571,0.5718,0,0,0,0,0,0,0,0,0,0,0,0,0,0.5062,0.4901,0.523,0.5287,0.5294,0.5433,0.5437,0.544,0.5495,0.5493,0.5491,0.549,0.5699,0.5709,0.5719,0.5817,0,0,0.575,0.5754,0,0,0,0,0,0,0,0,0.5053,0.5075,0.5276,0.5283,0.5291,0.5437,0.5396,0.5567,0.5495,0.5419,0.5491,0.5489,0.5617,0.5634,0.5676,0.5827,0.5837,0.5751,0.5757,0.5761,0.5764,0,0,0,0,0,0,0,0.5041,0.5066,0.5311,0.5279,0.5288,0.5303,0.5325,0.5428,0.5526,0.5425,0.543,0.5453,0.5621,0.5666,0.5681,0.584,0.5751,0.576,0.5766,0.577,0.6082,0.6084,0,0,0,0,0,0,0.5019,0.5056,0.5305,0.5317,0.5165,0.5311,0.5336,0.5392,0.5524,0.5543,0.5454,0.5455,0.5649,0.5669,0.5689,0.5813,0.5761,0.5771,0.5777,0.608,0.6083,0.6085,0,0,0,0,0,0,0.5011,0.504,0.5296,0.5188,0.5222,0.5319,0.5382,0.5397,0.5442,0.5546,0.5564,0.5482,0.5649,0.5675,0.5785,0.5821,0.5775,0.5785,0.6077,0.6081,0.6084,0.6062,0,0,0,0,0,0,0.5001,0.5037,0.5075,0.5188,0.5227,0.5388,0.5384,0.5402,0.5459,0.5462,0.5577,0.5595,0.5649,0.5769,0.5795,0.5835,0.5793,0.6075,0.6079,0.6083,0.606,0.6064,0.6068,0,0,0,0,0,0.4989,0.5062,0.5077,0.5106,0.5276,0.539,0.5412,0.5472,0.5462,0.5501,0.5568,0.5591,0.5813,0.578,0.5809,0.5853,0.6073,0.6078,0.6083,0.6058,0.6064,0.6068,0,0,0,0,0,0,0.4952,0.5078,0.5096,0.5207,0.5287,0.5399,0.545,0.5476,0.5561,0.556,0.5632,0.5658,0.5763,0.5819,0.578,0.5955,0.5943,0.5954,0.5915,0.5921,0.5924,0.5909,0.5801,0,0,0,0,0,0.4956,0.5037,0.5143,0.5231,0.527,0.5353,0.5404,0.5443,0.553,0.5565,0.564,0.5724,0.5812,0.5869,0.5957,0.6068,0.6094,0.6112,0.6116,0.6119,0.6128,0.6191,0.62,0.6101,0.6101,0.6101,0,0,0.4967,0.5045,0.5092,0.5225,0.5292,0.5375,0.5381,0.5469,0.5531,0.5579,0.5687,0.5744,0.5843,0.5954,0.6007,0.6004,0.6161,0.6125,0.6126,0.6134,0.6197,0.6206,0.6215,0.6105,0.6104,0.6104,0,0,0.5029,0.5096,0.5176,0.5243,0.5343,0.5397,0.5416,0.5525,0.5564,0.5673,0.5711,0.5787,0.5938,0.6007,0.6061,0.6148,0.6173,0.6174,0.6195,0.6256,0.6264,0.6271,0.6303,0.6313,0.6183,0.6183,0.6183,0,0.503,0.5155,0.5215,0.53,0.5358,0.5403,0.5486,0.5547,0.5672,0.5711,0.5705,0.5895,0.5965,0.6093,0.6113,0.6156,0.6181,0.6162,0.6257,0.6265,0.6273,0.6304,0.6316,0.6182,0.6182,0.6182,0.6182,0,0.5151,0.5237,0.5291,0.5408,0.5471,0.5555,0.5629,0.5686,0.5719,0.5774,0.5885,0.597,0.6075,0.6108,0.6142,0.6241,0.6236,0.6243,0.6233,0.6281,0.6311,0.6324,0.6181,0.6182,0.6182,0.6182,0,0,0.5197,0.5345,0.5364,0.5417,0.553,0.5599,0.5684,0.5786,0.5834,0.5918,0.5992,0.6118,0.6125,0.6187,0.6229,0.6282,0.6346,0.6283,0.6286,0.6292,0.646,0.6455,0.6468,0.6362,0.6365,0.6367,0.6452,0,0.5274,0.5427,0.5483,0.561,0.5691,0.5734,0.5809,0.5887,0.594,0.6018,0.6078,0.6166,0.6168,0.6206,0.626,0.6326,0.6381,0.6321,0.6434,0.6437,0.6408,0.6484,0.6479,0.6555,0.6465,0.6467,0.6468,0,0.5384,0.5467,0.5601,0.5704,0.574,0.5806,0.5903,0.5976,0.6066,0.6101,0.6169,0.6208,0.63,0.6283,0.6412,0.637,0.6419,0.6458,0.6463,0.6477,0.6456,0.65,0.6581,0.6593,0.6487,0.6486,0.6484,0,0.5404,0.555,0.5649,0.5694,0.5816,0.5862,0.5915,0.6002,0.606,0.6145,0.6183,0.6278,0.6331,0.6404,0.6467,0.6449,0.659,0.6578,0.6624,0.6622,0.6653,0.665,0.6743,0.6682,0.6682,0.6682,0.6682,0,0.5485,0.5565,0.566,0.5721,0.5813,0.5877,0.5966,0.6023,0.61,0.6174,0.6217,0.6285,0.6364,0.6443,0.6492,0.6592,0.6615,0.6647,0.666,0.6644,0.664,0.6678,0.6675,0.6685,0.6684,0.6684,0.6683,0,0.5524,0.559,0.5701,0.5807,0.5836,0.5899,0.599,0.6052,0.6106,0.6199,0.6224,0.6311,0.6406,0.6476,0.6599,0.6632,0.6739,0.6751,0.6708,0.6715,0.6756,0.6752,0.6879,0.6899,0.6823,0.6823,0.6824,0,0.5571,0.5634,0.5746,0.5797,0.585,0.5933,0.5991,0.6056,0.6115,0.6221,0.627,0.6368,0.6449,0.6599,0.6674,0.6768,0.6784,0.6822,0.6799,0.6781,0.6786,0.6781,0.6788,0.6825,0.6826,0.6826,0.6827,0,0.5648,0.5677,0.5759,0.5852,0.5919,0.5996,0.6073,0.6114,0.6193,0.6257,0.6354,0.6417,0.6541,0.6638,0.674,0.6796,0.6825,0.6833,0.6849,0.6834,0.6807,0.6823,0.6718,0.683,0.683,0.683,0.6829,0.6829,0.5694,0.5751,0.5839,0.5928,0.5993,0.6064,0.6127,0.6189,0.627,0.6376,0.6409,0.651,0.6598,0.6737,0.6794,0.6874,0.6874,0.6896,0.6902,0.6907,0.6906,0.6792,0.6893,0.6893,0.6893,0.6893,0.6893,0,0.5773,0.5831,0.5913,0.6019,0.6089,0.6108,0.6195,0.6253,0.634,0.6419,0.6497,0.6609,0.6702,0.6784,0.6881,0.693,0.6946,0.6953,0.6951,0.6964,0.6901,0.6878,0.6939,0.6939,0.6939,0.6939,0.6939,0.6939,0.5823,0.5922,0.5962,0.6093,0.6151,0.6249,0.6297,0.6363,0.6426,0.6548,0.6625,0.6677,0.6758,0.6861,0.6948,0.697,0.7004,0.7009,0.7034,0.6974,0.6968,0.6963,0.6942,0.7015,0.7015,0.709,0.7091,0.7091]},{"header":{"parameterUnit":"m.s-1","parameterCategory":1,"la1":30.2991,"la2":30.254,"lo1":-89.0895,"lo2":-89.0444,"dy":0.0017,"dx":0.0017,"nx":28,"ny":28,"refTime":"2024-11-25T03:00:00:Z","depth":0,"parameterNumber":3,"parameterNumberName":"V-component_of_WINDS"},"data":[0,0,0,0,0,0,0,0,0,0,0,0,0,0,0,0,0,0,0,0,0,0,0,0,0,0,0,0,0,0,0,0,0,0,0,0,0,0,0,0,0,0,0,0,0,0,0,0,0,0,0,0,0,0,0,0,0,0,3.9989,3.9991,0,4.0144,4.0146,4.0148,4.0155,4.0153,4.0151,4.015,4.0303,4.0309,4.0315,0,0,0,0,0,0,0,0,0,0,0,0,0,3.9693,3.9699,3.9989,3.9991,3.9993,4.0144,4.0146,4.0148,4.0155,4.0153,4.0151,4.0149,4.0302,4.0308,4.0315,0,0,0,0,0,0,0,0,0,0,0,0,0,3.9832,3.9701,3.9988,4.0015,4.0018,4.0143,4.0146,4.0149,4.0156,4.0153,4.015,4.0148,4.0299,4.0308,4.0316,4.0424,0,0,4.0343,4.0346,0,0,0,0,0,0,0,0,3.9825,3.9843,4.0009,4.0013,4.0018,4.0128,4.0098,4.0241,4.0156,4.0103,4.015,4.0146,4.0247,4.026,4.0295,4.0431,4.0438,4.0344,4.0349,4.0352,4.0355,0,0,0,0,0,0,0,3.9815,3.9837,4.005,4.0011,4.0017,4.0017,4.0034,4.0125,4.0188,4.0108,4.0109,4.0127,4.0249,4.0286,4.0298,4.044,4.0343,4.0351,4.0356,4.036,4.0673,4.0676,0,0,0,0,0,0,3.9801,3.9828,4.0045,4.0055,3.9913,4.0024,4.0043,4.0095,4.0187,4.0199,4.013,4.0127,4.0273,4.0288,4.0304,4.0437,4.0352,4.0361,4.0366,4.067,4.0674,4.0677,0,0,0,0,0,0,3.9794,3.982,4.0039,3.9942,3.997,4.0033,4.009,4.0099,4.0137,4.0204,4.0214,4.0157,4.0271,4.0291,4.0395,4.0442,4.0364,4.0372,4.0667,4.0671,4.0676,4.0704,0,0,0,0,0,0,3.9786,3.9818,3.9861,3.9943,3.9975,4.0129,4.0093,4.0104,4.0153,4.0151,4.0232,4.0243,4.0271,4.0382,4.0403,4.0453,4.0379,4.0663,4.0669,4.0674,4.0699,4.0709,4.0718,0,0,0,0,0,3.9775,3.9861,3.9863,3.9889,4.003,4.0132,4.015,4.0182,4.0156,4.02,4.0242,4.024,4.0433,4.0392,4.0416,4.0469,4.066,4.0667,4.0674,4.0695,4.0707,4.0717,0,0,0,0,0,0,3.9781,3.9872,3.9875,3.9991,4.0054,4.0133,4.0188,4.0193,4.0264,4.0259,4.0293,4.0311,4.0414,4.0452,4.0404,4.0579,4.0543,4.0556,4.0551,4.0563,4.0572,4.0562,4.0386,0,0,0,0,0,3.9796,3.9872,3.9947,4.0041,4.0073,4.0125,4.0171,4.019,4.0256,4.0282,4.0332,4.0395,4.0469,4.0518,4.059,4.0704,4.0722,4.0752,4.0761,4.0768,4.0779,4.0842,4.0857,4.0701,4.07,4.07,0,0,3.9827,3.9886,3.9932,4.0044,4.0095,4.0173,4.0148,4.023,4.0288,4.0294,4.0396,4.0434,4.0506,4.0615,4.0666,4.065,4.0826,4.0777,4.0783,4.079,4.0851,4.0866,4.0879,4.0705,4.0704,4.0704,0,0,3.9924,3.9976,4.0061,4.0113,4.0192,4.0226,4.0246,4.0325,4.0352,4.0454,4.0461,4.0528,4.0656,4.0708,4.075,4.0866,4.0867,4.0888,4.0937,4.0999,4.1011,4.1022,4.1064,4.1079,4.0898,4.0898,4.0898,0,3.9953,4.0071,4.0104,4.0188,4.0236,4.0247,4.0333,4.0381,4.0478,4.0511,4.0492,4.0653,4.0702,4.0824,4.0852,4.0886,4.091,4.088,4.1007,4.1018,4.1029,4.107,4.1086,4.0901,4.09,4.09,4.09,0,4.0103,4.0185,4.0244,4.034,4.0395,4.0479,4.0523,4.0574,4.0588,4.0624,4.0728,4.0787,4.0872,4.0901,4.0915,4.1025,4.1013,4.1,4.0965,4.1046,4.1085,4.11,4.0904,4.0903,4.0902,4.0902,0,0,4.0209,4.0322,4.0344,4.0388,4.0474,4.0538,4.0621,4.0706,4.075,4.0816,4.0887,4.0995,4.0984,4.1032,4.1051,4.1105,4.1194,4.1085,4.1087,4.1104,4.132,4.1331,4.1348,4.1194,4.1197,4.12,4.1314,0,4.0317,4.0469,4.0501,4.0631,4.0707,4.0718,4.0791,4.0851,4.0886,4.0954,4.0991,4.1069,4.1047,4.1077,4.113,4.1172,4.1238,4.1164,4.126,4.1263,4.1244,4.1368,4.138,4.1486,4.1329,4.1332,4.1334,0,4.0463,4.0535,4.0674,4.0752,4.0785,4.085,4.0931,4.0996,4.1064,4.1085,4.114,4.1153,4.1239,4.1199,4.1318,4.1267,4.1307,4.1334,4.1338,4.135,4.1305,4.1385,4.152,4.1536,4.1358,4.1356,4.1354,0,4.0529,4.066,4.0761,4.0797,4.089,4.0935,4.0976,4.1041,4.109,4.116,4.1192,4.1269,4.1312,4.1371,4.1404,4.1372,4.1521,4.1483,4.1541,4.154,4.1573,4.1571,4.1718,4.1596,4.1596,4.1596,4.1595,0,4.0647,4.0732,4.0792,4.0853,4.0948,4.0983,4.1075,4.1115,4.1173,4.1242,4.1254,4.1318,4.1357,4.1426,4.1452,4.1546,4.1565,4.1584,4.1591,4.1585,4.1582,4.1613,4.1607,4.16,4.1599,4.1598,4.1598,0,4.0737,4.0781,4.0891,4.097,4.0991,4.1058,4.1124,4.1184,4.1219,4.1306,4.1328,4.1382,4.1464,4.1502,4.1602,4.162,4.1728,4.1728,4.1706,4.1709,4.1765,4.176,4.1939,4.1964,4.1824,4.1825,4.1826,0,4.0811,4.0877,4.0963,4.1011,4.1053,4.1129,4.118,4.1216,4.1268,4.135,4.14,4.1482,4.1551,4.1681,4.1728,4.1805,4.1808,4.1865,4.1819,4.1811,4.181,4.1807,4.1814,4.1874,4.1875,4.1876,4.1877,0,4.0937,4.0956,4.1029,4.1111,4.1171,4.1236,4.13,4.1338,4.1383,4.1441,4.1526,4.1579,4.1683,4.1765,4.1845,4.1884,4.1889,4.1891,4.1909,4.1904,4.1889,4.19,4.1731,4.1887,4.1886,4.1885,4.1885,4.1884,4.1023,4.1082,4.1153,4.1234,4.1286,4.1346,4.1406,4.1449,4.1521,4.161,4.1625,4.1716,4.1781,4.189,4.1932,4.2002,4.1988,4.2013,4.202,4.2026,4.203,4.1877,4.2016,4.2016,4.2016,4.2015,4.2015,0,4.1151,4.1197,4.1272,4.1362,4.1426,4.1425,4.1496,4.1549,4.1629,4.1691,4.1758,4.1855,4.1935,4.1988,4.2068,4.2114,4.2118,4.2134,4.2132,4.2141,4.2037,4.2015,4.2129,4.2129,4.2129,4.2129,4.2129,4.2129,4.1226,4.1327,4.1353,4.148,4.1524,4.1615,4.1655,4.171,4.1759,4.1869,4.1935,4.197,4.2028,4.2112,4.2185,4.2198,4.2227,4.2244,4.2257,4.216,4.2148,4.2137,4.2116,4.225,4.225,4.2356,4.2357,4.2357]}]]